Regional Weather Roundup
Issued by NWS

Home | Current Version | Previous Version | Text Only | Print | Product List | Glossary Off
Versions: 1 2 3 4 5 6 7 8 9 10 11 12 13 14 15 16 17 18 19 20 21 22 23 24 25 26 27 28 29 30 31 32 33 34 35 36 37 38 39 40 41 42 43 44 45 46 47 48 49 50

000
ASUS44 KMEG 280800
RWRTN
TENNESSEE HOURLY STATE WEATHER ROUNDUP
NATIONAL WEATHER SERVICE MEMPHIS TN
300 AM CDT FRI APR 28 2017

TNZ002-004-019-021-049-052-054-088>092-280900-
WEST TENNESSEE

CITY           SKY/WX    TMP DP  RH WIND       PRES   REMARKS
MEMPHIS INTL   CLOUDY    58  53  84 E7        29.79F
NWS MEMPHIS      N/A     55 N/A N/A MISG        N/A
JACKSON        CLEAR     54  52  93 CALM      29.85S
DYERSBURG      PTCLDY    52  51  97 CALM      29.85S
PARIS          CLEAR     52  52 100 E3        29.87R
$$

TNZ008-025-027-028-033-062-065-066-280900-
NORTH MIDDLE TENNESSEE

CITY           SKY/WX    TMP DP  RH WIND       PRES   REMARKS
NASHVILLE      PTCLDY    53  51  93 CALM      29.90F
CLARKSVILLE    CLOUDY    53  50  89 SE3       29.89R
SMYRNA         CLEAR     51  50  96 CALM      29.91S
CROSSVILLE     CLEAR     49  47  93 CALM      29.94S
$$

TNZ061-075-076-078-094-096-097-280900-
SOUTH MIDDLE TENNESSEE

CITY           SKY/WX    TMP DP  RH WIND       PRES   REMARKS
TULLAHOMA      CLEAR     54  52  94 CALM      29.90S
WINCHESTER     CLEAR     54  52  94 CALM      29.89F
MCMINNVILLE    CLEAR     54  54 100 CALM      29.91R
COLUMBIA       CLEAR    N/A N/A N/A CALM      29.87F
SHELBYVILLE    CLEAR     54  54 100 CALM      29.91R
$$

TNZ017-018-042-046-047-280900-
NORTHEAST TENNESSEE

CITY           SKY/WX    TMP DP  RH WIND       PRES   REMARKS
TRI CITIES     FOG       56  56 100 CALM      29.96R VSB 1/4
$$

TNZ012-013-036-069-073-074-280900-
CENTRAL EAST TENNESSEE

CITY           SKY/WX    TMP DP  RH WIND       PRES   REMARKS
KNOXVILLE      CLEAR     58  55  90 CALM      29.91S
OAK RIDGE      FOG       56  54  93 CALM      29.93S VSB 1/4
GATLINBURG     PTCLDY    54  54 100 CALM      29.93R
$$

TNZ083-085-099-280900-
SOUTHEAST TENNESSEE

CITY           SKY/WX    TMP DP  RH WIND       PRES   REMARKS
CHATTANOOGA    CLEAR     58  55  90 CALM      29.92R
$$

SKY/WX REPORTED AS FAIR MEANS FEW OR NO CLOUDS BELOW
12 THOUSAND FEET.




USA.gov is the U.S. government's official web portal to all federal, state and local government web resources and services.